Retour au catalogue

ARIANE 1 DEB

ActifSSO
NORAD 17423·DEBRIS·🇫🇷 France

Lancé Feb 22, 1986 depuis Guiana Space Centre

Loading…

Prochains Passages (prochaines 24 heures)

TLE

FraisSource: Space-Track

Époque: Sep 14, 2026, 00:14 UTC

1 17423U 86019FJ  26257.00977103 -.00000052  00000-0 -67745-5 0  9993
2 17423  98.7038 267.5921 0174787 141.2402 276.4674 14.02925415 27495

Suivez ARIANE 1 DEB en temps réel avec AllMySat

Download on the App Store